User: anonymous   Login
Location: Newark
(54.8972°N, 99.8189°W)
Time: 19:52:53
(UTC+00:00)
Language:

SR - Orbit

View from above orbital plane
View from above orbital plane
View from above satellite
View from above satellite

Ground track
Ground track

The orbit data is extracted from the following two-line orbital elements,

1    46U 60007B   19315.42677173 -.00000010  00000-0  21274-4 0  9991
2    46  66.6899 278.3325 0217027 293.6138  64.2316 14.49256962107364
Epoch (UTC): 11 November 2019 10:14:33
Eccentricity: 0.0217027
inclination: 66.6899°
perigee height: 574 km
apogee height: 882 km
right ascension of ascending node: 278.3325°
argument of perigee: 293.6138°
revolutions per day: 14.49256962
mean anomaly at epoch: 64.2316°
orbit number at epoch: 10736

The dashed part of the orbit path shows where the satellite is in the earth's shadow,  

DLR